Akcaoren, Turkey

8:34 PM +03 on May 20, 2018 (GMT +0300)
Etimesgut Air Base | | Change Station

Elev 2644 ft 39.95 °N, 32.68 °E | Updated 2 hours ago

Light Thunderstorms and Rain
Light Thunderstorm Rain
61 °F
Feels Like 61 °F
N
9
Wind Variable Wind from ESE

Today
High -- | Low -- °F
--% Chance of Precip.
Yesterday
High -- | Low -- °F
Precip. -- in
Pressure 30.04 in
Visibility 6.2 miles
Clouds Scattered Clouds 3000 ft
Mostly Cloudy 3500 ft
Dew Point 57 °F
Humidity 88%
Rainfall 0.00 in
Snow Depth Not available.
5:30 AM 8:03 PM
Waxing Crescent, 34% visible
SPECI LTAD 201515Z 12008KT 9999 -TSRA SCT030CB BKN035 16/14 Q1017 RETSRA BECMG TL1610 NSW RMK RWY29 11009KT 090V150
Pressure 30.04 in
Visibility 6.2 miles
Clouds Scattered Clouds 3000 ft
Mostly Cloudy 3500 ft
Dew Point 57 °F
Humidity 88%
Rainfall 0.00 in
Snow Depth Not available.
5:30 AM 8:03 PM
Waxing Crescent, 34% visible
SPECI LTAD 201515Z 12008KT 9999 -TSRA SCT030CB BKN035 16/14 Q1017 RETSRA BECMG TL1610 NSW RMK RWY29 11009KT 090V150

Get Severe Weather Alerts

Thanks for signing up!

Be on the lookout for a verification email in your inbox.

You'll start receiving the daily forecast at 6 AM.

×

10-Day Weather Forecast

×

Almanac

Astronomy

May. 20, 2018 Rise Set
Actual Time
Civil Twilight
Nautical Twilight
Astronomical Twilight
Moon
Length of Visible Light
Length of Day
Tomorrow will be .
, % of the Moon is Illuminated

Today's Extremes

Country Highs Country Lows

Community

WunderPhotos

Category 6

Welcome to Category 6. This is the collective home for Weather Underground's featured writeups by Dr. Jeff Masters (right), Bob Henson (left), Chris Burt, and other regular contributors.

Nearby

Air Quality

  Air Quality AQ Index Pollutant
Not available.

Snow Depth

Station Depth Elevation

Earthquake Activity

City Distance Mag. Time & Date
Minimum magnitude displayed is 2.5.

Coastal Water Temperatures

Place Temperature

Stations

Nearby Weather Stations

Station Location Temp. Windchill Dew Point Humidity Wind Precip. Elev Updated Type